Regional Weather Roundup
Issued by NWS

Home | Current Version | Previous Version | Text Only | Print | Product List | Glossary On
Versions: 1 2 3 4 5 6 7 8 9 10 11 12 13 14 15 16 17 18 19 20 21 22 23 24 25 26 27 28 29 30 31 32 33 34 35 36 37 38 39 40 41 42 43 44 45 46 47 48 49 50
000
ASUS43 KLMK 081610
RWRKY
KENTUCKY REGIONAL WEATHER ROUNDUP
NATIONAL WEATHER SERVICE LOUISVILLE KY
1100 AM EST THU DEC 08 2016

NOTE "FAIR" INDICATES FEW OR NO CLOUDS BELOW 12,000 FEET
WITH NO SIGNIFICANT WEATHER AND/OR OBSTRUCTIONS TO VISIBILITY.

KYZ001>023-026-027-061>063-070>075-081700-
WESTERN AND SOUTH CENTRAL KENTUCKY

CITY           SKY/WX    TMP DP  RH WIND       PRES   REMARKS
PADUCAH        SUNNY     30  32 100 NW12      30.50R WCI  20
HENDERSON      SUNNY     28  14  54 W12       30.47R WCI  18
OWENSBORO      SUNNY     29  17  61 NW14      30.46R WCI  18
HOPKINSVILLE   SUNNY     31  15  52 NW13      30.46R WCI  22
BOWLING GREEN  MOSUNNY   34  20  56 W9        30.44R WCI  27
GLASGOW        MOSUNNY   33  22  63 W10G18    30.41R WCI  25
$$

KYZ024-025-028>034-038-045-046-053-081700-
NORTH CENTRAL KENTUCKY

CITY           SKY/WX    TMP DP  RH WIND       PRES   REMARKS
LOUISVILLE/SDF PTSUNNY   31  17  56 W13       30.38S WCI  21
LOUISVILLE/LOU PTSUNNY   30  17  58 W10       30.38R WCI  21
FORT KNOX      MOSUNNY   28  15  59 W14G20    30.37R WCI  17
$$

KYZ035>037-039>044-047>052-055>060-089>105-081700-
NORTHEAST KENTUCKY

CITY           SKY/WX    TMP DP  RH WIND       PRES   REMARKS
LEXINGTON      PTSUNNY   32  18  56 W14G21    30.33R WCI  22
COVINGTON      MOSUNNY   29  14  53 W21       30.29R WCI  16
FRANKFORT      PTSUNNY   31  18  58 W7G17     30.34R WCI  24
$$

KYZ054-064>069-076>088-106>120-081700-
SOUTHEAST KENTUCKY

CITY           SKY/WX    TMP DP  RH WIND       PRES   REMARKS
JACKSON        MOSUNNY   34  20  56 W8G17     30.27R WCI  27
LONDON         MOSUNNY   34  20  56 W12       30.32R WCI  25
SOMERSET       MOSUNNY   34  21  60 W8        30.36S WCI  27
MIDDLESBORO    MOSUNNY   37  18  47 NW10G17   30.32R WCI  29
MONTICELLO     MOSUNNY   35  22  58 W8G20     30.38R WCI  29
$$




USA.gov is the U.S. government's official web portal to all federal, state and local government web resources and services.